Location: Plymouth
(43.7570°N, 71.6890°W)
Time: 13:36:26
(UTC-04:00)

Amateur Radio Satellites - All Passes

Search period start: 25 June 2016 13:06
Search period end: 26 June 2016 13:06
Location: Plymouth, 43.7570°N, 71.6890°W

Satellite Date Start Highest point End Downlink Frequencies (MHz)
Time Altitude Azimuth
BEESAT 3 25 Jun 13:07:17 13:10:46 30° 244° (WSW) 13:14:13 437.485
AISAT 25 Jun 13:16:49 13:20:53 38° 291° (WNW) 13:24:57 437.250
Gurwin Techsat 1B 25 Jun 13:18:23 13:23:17 39° 68° (ENE) 13:28:11 435.225
Cosmos 2504 25 Jun 13:22:37 13:28:53 26° 79° (E) 13:35:27 435.465 / 435.565
Oscar 19 25 Jun 13:30:46 13:35:55 76° 257° (WSW) 13:41:05 437.125/150
RS-15 25 Jun 13:32:29 13:43:57 76° 308° (NW) 13:56:08 29.354- 29.394
UKube-1 25 Jun 13:37:13 13:41:13 38° 290° (WNW) 13:45:12 .
BEESAT 2 25 Jun 13:37:51 13:41:12 26° 245° (WSW) 13:44:32 435.950
YUBILEINY 25 Jun 13:43:31 13:52:14 82° 278° (W) 14:01:04 435.215
TISAT 1 25 Jun 13:44:00 13:48:04 47° 100° (E) 13:52:07 437.305
SPROUT 25 Jun 13:45:52 13:49:55 42° 289° (WNW) 13:53:56 437.525
ITAMSAT 1 25 Jun 13:46:08 13:50:26 27° 64° (ENE) 13:54:46 435.822/435.867
50 SAT 25 Jun 13:46:27 13:48:23 14° 296° (WNW) 13:50:20 437.505
AIST 2 25 Jun 13:48:38 13:52:15 28° 45° (NE) 13:55:51 435.215
DX 1 25 Jun 13:50:32 13:54:00 24° 294° (WNW) 13:57:28 434.975-435.025
Cosmos 2491 25 Jun 13:57:02 14:04:13 30° 278° (W) 14:11:23 435.465 / 435.565
AO-7 25 Jun 14:00:13 14:07:09 31° 54° (NE) 14:14:07 29.400- 29.500
SWISSCUBE 25 Jun 14:02:30 14:05:37 17° 91° (E) 14:08:43 437.505
JAS-2 25 Jun 14:04:46 14:10:52 25° 268° (W) 14:16:40 435.910
PCSat 25 Jun 14:05:49 14:07:21 11° 259° (WSW) 14:08:52 145.827
VELOX 1 25 Jun 14:14:39 14:16:26 12° 300° (WNW) 14:18:11 145.980
CUBEBUG 1 25 Jun 14:17:24 14:18:01 10° 301° (WNW) 14:18:38 437.445
ITUPSAT 1 25 Jun 14:26:08 14:30:09 26° 95° (E) 14:34:07 437.325
O/OREOS (USA 219) 25 Jun 14:27:29 14:30:48 21° 258° (WSW) 14:34:07 437.305
BEESAT 25 Jun 14:27:30 14:31:34 27° 95° (E) 14:35:37 436.000
ISS 25 Jun 14:28:36 14:31:21 24° 13° (NNE) 14:34:05 145.825
Gurwin Techsat 1B 25 Jun 14:58:44 15:03:18 29° 265° (W) 15:07:54 435.225
Cosmos 2504 25 Jun 15:13:22 15:21:22 71° 281° (W) 15:30:01 435.465 / 435.565
TISAT 1 25 Jun 15:20:40 15:23:22 17° 296° (WNW) 15:26:05 437.305
ITAMSAT 1 25 Jun 15:24:47 15:29:42 42° 262° (W) 15:34:40 435.822/435.867
AIST 2 25 Jun 15:27:00 15:30:46 34° 244° (WSW) 15:34:32 435.215
SWISSCUBE 25 Jun 15:39:03 15:43:45 56° 289° (WNW) 15:48:26 437.505
MOZHAYETS 4 25 Jun 15:39:19 15:42:21 17° 91° (E) 15:45:21
YUBILEINY 25 Jun 15:44:52 15:50:34 19° 302° (WNW) 15:56:20 435.215
RS-15 25 Jun 15:48:35 15:58:52 33° 337° (NNW) 16:09:36 29.354- 29.394
AO-7 25 Jun 15:51:00 15:59:18 70° 255° (WSW) 16:07:41 29.400- 29.500
ITUPSAT 1 25 Jun 16:03:37 16:08:03 37° 292° (WNW) 16:12:27 437.325
ISS 25 Jun 16:04:52 16:08:09 83° 31° (NNE) 16:11:25 145.825
BEESAT 25 Jun 16:05:03 16:09:24 35° 292° (WNW) 16:13:44 436.000
KKS-1 25 Jun 16:14:10 16:18:22 40° 98° (E) 16:22:33 437.445
SO-50 25 Jun 16:21:23 16:25:49 35° 115° (ESE) 16:30:14 436.795
NOAA 18 25 Jun 16:32:03 16:35:02 15° 56° (ENE) 16:38:02 137.9125
HORYU 2 25 Jun 16:38:41 16:43:05 74° 74° (ENE) 16:47:32 437.375
NOAA 15 25 Jun 16:40:56 16:44:44 20° 61° (ENE) 16:48:32 137.62
STARS 25 Jun 16:55:56 17:00:17 56° 101° (E) 17:04:36 437.465
CUBESAT XI-V 25 Jun 16:57:54 17:00:05 13° 89° (E) 17:02:16 437.345
AIST 1 25 Jun 16:58:08 17:01:47 27° 90° (E) 17:05:27
Cubesat XI-IV 25 Jun 17:04:50 17:09:00 24° 62° (ENE) 17:13:11 437.490
BRITE-PL 25 Jun 17:11:14 17:15:40 30° 69° (ENE) 17:19:50 437.365/2234.400
Cosmos 2504 25 Jun 17:11:58 17:16:38 16° 305° (NW) 17:21:28 435.465 / 435.565
MOZHAYETS 4 25 Jun 17:15:18 17:19:49 52° 288° (WNW) 17:24:19
CUTE-I 25 Jun 17:39:13 17:44:16 45° 69° (ENE) 17:49:23 437.470
ISS 25 Jun 17:42:30 17:44:11 13° 228° (SW) 17:45:52 145.825
DOVE 4 25 Jun 17:45:38 17:47:31 13° 62° (ENE) 17:49:24 437.250
GONETS M04 25 Jun 17:46:14 17:53:13 28° 81° (E) 18:00:11
AO-7 25 Jun 17:49:54 17:53:32 13° 274° (W) 17:57:12 29.400- 29.500
KKS-1 25 Jun 17:51:19 17:54:41 22° 295° (WNW) 17:58:04 437.445
DANDE 25 Jun 18:01:03 18:02:18 11° 52° (NE) 18:03:30 436.750
SO-50 25 Jun 18:01:47 18:06:17 36° 314° (NW) 18:10:47 436.795
GOMX 1 25 Jun 18:02:46 18:07:10 42° 72° (ENE) 18:11:21 467.674
LilacSat-2 25 Jun 18:04:56 18:08:40 67° 75° (ENE) 18:12:27 437.200
RS-15 25 Jun 18:06:17 18:16:22 29° 12° (NNE) 18:26:37 29.354- 29.394
Cosmos 2499 25 Jun 18:09:06 18:15:31 26° 79° (E) 18:22:12 435.465 / 435.565
CUSAT 1 25 Jun 18:09:20 18:12:24 19° 64° (ENE) 18:14:59 437.405
NOAA 18 25 Jun 18:09:27 18:14:55 88° 249° (WSW) 18:20:27 137.9125
NOAA 15 25 Jun 18:18:49 18:24:03 60° 259° (WSW) 18:29:18 137.62
HORYU 2 25 Jun 18:18:53 18:20:10 11° 271° (W) 18:21:27 437.375
CUBESAT XI-V 25 Jun 18:33:20 18:37:57 67° 286° (WNW) 18:42:30 437.345
STARS 25 Jun 18:33:32 18:36:12 16° 298° (WNW) 18:38:51 437.465
AIST 1 25 Jun 18:35:39 18:39:20 26° 287° (WNW) 18:43:00
Cubesat XI-IV 25 Jun 18:43:33 18:48:44 51° 260° (W) 18:53:59 437.490
BRITE-PL 25 Jun 18:49:27 18:54:05 33° 263° (W) 18:58:27 437.365/2234.400
HO-68 25 Jun 18:57:42 19:04:12 39° 62° (ENE) 19:10:43 435.675
CINEMA 3 25 Jun 19:04:45 19:08:04 24° 67° (ENE) 19:11:24 145.822/145.860
CANX-2 25 Jun 19:19:38 19:23:32 35° 70° (ENE) 19:27:28 2200.000
CUTE-I 25 Jun 19:20:10 19:24:31 25° 266° (W) 19:28:54 437.470
DOVE 4 25 Jun 19:20:24 19:24:46 66° 258° (WSW) 19:28:59 437.250
CUBEBUG 2 25 Jun 19:26:21 19:28:22 13° 61° (ENE) 19:30:23 437.445
COMPASS 1 25 Jun 19:35:20 19:38:44 24° 67° (ENE) 19:42:08 437.405
CUTE 1.7 + AOD 2 25 Jun 19:40:02 19:44:10 51° 73° (ENE) 19:48:21 437.475
GONETS M04 25 Jun 19:40:40 19:49:19 66° 282° (WNW) 19:58:00
DANDE 25 Jun 19:41:02 19:46:42 83° 78° (ENE) 19:50:49 436.750
GOMX 1 25 Jun 19:41:56 19:45:24 20° 266° (W) 19:48:45 467.674
SEEDS 25 Jun 19:50:20 19:54:24 48° 72° (ENE) 19:58:32 437.485
CUSAT 1 25 Jun 19:51:14 19:54:31 24° 273° (W) 19:57:12 437.405
M-CUBED/EXP-1 PRIME 25 Jun 19:51:16 19:54:00 25° 64° (ENE) 19:56:45 437.505
NOAA 18 25 Jun 19:54:24 19:56:21 12° 272° (W) 19:58:19 137.9125
Cosmos 2499 25 Jun 19:59:30 20:07:43 73° 281° (W) 20:16:31 435.465 / 435.565
ZACube-1 25 Jun 20:06:49 20:09:29 17° 63° (ENE) 20:12:12 437.345
STRAND 1 25 Jun 20:08:51 20:14:03 77° 104° (ESE) 20:19:11 437.568
UWE-3 25 Jun 20:18:56 20:22:37 32° 69° (ENE) 20:26:25 435.000/436.395/437.385
RS-15 25 Jun 20:20:22 20:32:27 56° 44° (NE) 20:44:28 29.354- 29.394
Oscar 11 25 Jun 20:22:17 20:25:54 26° 67° (ENE) 20:29:32 145.826/435.025
FUNcube-1 25 Jun 20:25:27 20:28:49 24° 67° (ENE) 20:32:15 145.935
AAUSAT CUBESAT 2 25 Jun 20:39:03 20:43:15 87° 262° (W) 20:47:29 437.432
CINEMA 3 25 Jun 20:41:28 20:45:07 30° 264° (W) 20:48:47 145.822/145.860
HO-68 25 Jun 20:45:04 20:51:49 44° 261° (W) 20:58:38 435.675
AUBIESAT-1 25 Jun 20:48:40 20:51:58 68° 254° (WSW) 20:55:15 437.475
CANX-2 25 Jun 20:56:10 20:59:29 22° 267° (W) 21:02:49 2200.000
CUBEBUG 2 25 Jun 21:00:22 21:04:28 61° 260° (W) 21:08:40 437.445
COMPASS 1 25 Jun 21:10:23 21:14:08 31° 264° (W) 21:17:56 437.405
CUTE 1.7 + AOD 2 25 Jun 21:17:50 21:20:19 15° 269° (W) 21:22:50 437.475
DELFI C3 25 Jun 21:18:52 21:22:44 46° 72° (ENE) 21:26:37 145.870
M-CUBED/EXP-1 PRIME 25 Jun 21:26:21 21:28:37 17° 260° (W) 21:30:54 437.505
SEEDS 25 Jun 21:27:46 21:30:22 16° 269° (W) 21:33:01 437.485
PRISM 25 Jun 21:29:27 21:33:34 89° 103° (ESE) 21:37:38 437.425
ZACube-1 25 Jun 21:41:21 21:45:23 48° 261° (W) 21:49:32 437.345
GONETS M04 25 Jun 21:43:51 21:48:07 14° 305° (NW) 21:52:26
HUMSAT D 25 Jun 21:47:22 21:51:19 45° 72° (ENE) 21:55:22 437.325/437.525
STRAND 1 25 Jun 21:49:35 21:52:35 16° 301° (WNW) 21:55:34 437.568
AO-85 25 Jun 21:51:30 21:56:22 34° 115° (ESE) 22:01:06 145.980
UWE-3 25 Jun 21:55:50 21:59:09 23° 267° (W) 22:02:32 435.000/436.395/437.385
Cosmos 2499 25 Jun 21:57:39 22:02:40 17° 304° (NW) 22:07:51 435.465 / 435.565
Oscar 11 25 Jun 21:58:06 22:01:55 30° 264° (W) 22:05:47 145.826/435.025
YUBILEINY 25 Jun 21:58:51 22:01:30 11° 51° (NE) 22:04:07 435.215
ANTELSAT 25 Jun 21:59:16 22:01:48 14° 90° (E) 22:04:19 437.575/2403.000
FUNcube-1 25 Jun 22:01:12 22:04:56 31° 264° (W) 22:08:45 145.935
ESTCUBE 1 25 Jun 22:21:55 22:25:28 23° 65° (ENE) 22:29:02 437.505/2401.250
RS-15 25 Jun 22:33:18 22:45:04 54° 248° (WSW) 22:56:43 29.354- 29.394
AISAT 25 Jun 22:39:39 22:43:06 23° 65° (ENE) 22:46:33 437.250
TIGRISAT 25 Jun 22:50:24 22:54:51 44° 99° (E) 22:59:18 435.000
50 SAT 25 Jun 22:50:49 22:53:55 26° 69° (ENE) 22:57:03 437.505
UNISAT 6 25 Jun 22:54:22 22:58:53 52° 100° (E) 23:03:27 437.425
DELFI C3 25 Jun 22:55:30 22:57:51 15° 269° (W) 23:00:10 145.870
UKube-1 25 Jun 22:57:42 23:00:59 21° 65° (ENE) 23:04:16 .
SPROUT 25 Jun 23:06:03 23:08:51 17° 64° (ENE) 23:11:39 437.525
DX 1 25 Jun 23:10:39 23:14:36 35° 69° (ENE) 23:18:34 434.975-435.025
Cosmos 2491 25 Jun 23:11:48 23:15:14 13° 72° (ENE) 23:18:38 435.465 / 435.565
SO-50 25 Jun 23:12:54 23:14:11 11° 27° (NNE) 23:15:29 436.795
Cosmos 2504 25 Jun 23:14:40 23:16:55 11° 50° (NE) 23:19:11 435.465 / 435.565
HUMSAT D 25 Jun 23:24:36 23:27:12 16° 269° (W) 23:29:51 437.325/437.525
AO-85 25 Jun 23:31:42 23:36:48 42° 312° (NW) 23:41:45 145.980
ANTELSAT 25 Jun 23:34:19 23:38:53 63° 286° (WNW) 23:43:31 437.575/2403.000
VELOX 1 25 Jun 23:34:23 23:38:47 79° 76° (ENE) 23:43:13 145.980
CUBEBUG 1 25 Jun 23:34:54 23:39:17 85° 76° (ENE) 23:43:39 437.445
BUGSAT 1 25 Jun 23:46:52 23:48:32 12° 90° (E) 23:50:11 437.445
NANOSAT C BR1 25 Jun 23:49:04 23:52:52 31° 97° (E) 23:56:39 145.865
QB50P1 25 Jun 23:50:07 23:53:59 33° 97° (E) 23:57:52 145.935-145.965
YUBILEINY 25 Jun 23:52:05 00:00:44 55° 75° (ENE) 00:09:21 435.215
POPSAT HIP 1 25 Jun 23:52:58 23:56:54 35° 98° (E) 00:00:49 437.405
ESTCUBE 1 25 Jun 23:57:49 00:02:04 39° 262° (W) 00:06:20 437.505/2401.250
QB50P2 26 Jun 00:04:18 00:08:28 51° 100° (E) 00:12:37 145.880/145.840
POLYITAN 1 26 Jun 00:06:54 00:11:05 52° 100° (E) 00:15:16 437.675
DUCHIFAT 1 26 Jun 00:10:59 00:15:08 51° 100° (E) 00:19:15 145.980
AISAT 26 Jun 00:15:18 00:19:23 36° 262° (W) 00:23:28 437.250
50 SAT 26 Jun 00:24:35 00:27:34 22° 265° (W) 00:30:34 437.505
TIGRISAT 26 Jun 00:27:47 00:31:15 21° 295° (WNW) 00:34:44 435.000
UNISAT 6 26 Jun 00:32:02 00:35:13 19° 296° (WNW) 00:38:27 437.425
UKube-1 26 Jun 00:32:47 00:36:48 38° 262° (W) 00:40:50 .
TISAT 1 26 Jun 00:36:47 00:40:41 41° 71° (ENE) 00:44:37 437.305
SPROUT 26 Jun 00:40:21 00:44:26 46° 261° (W) 00:48:34 437.525
DX 1 26 Jun 00:47:27 00:50:53 22° 266° (W) 00:54:19 434.975-435.025
SO-50 26 Jun 00:51:24 00:55:55 44° 49° (NE) 01:00:18 436.795
RS-15 26 Jun 00:53:11 00:54:28 10° 270° (W) 00:55:44 29.354- 29.394
Cosmos 2491 26 Jun 01:01:37 01:10:17 68° 93° (E) 01:18:57 435.465 / 435.565
Cosmos 2504 26 Jun 01:04:13 01:12:52 51° 74° (ENE) 01:21:13 435.465 / 435.565
SWISSCUBE 26 Jun 01:10:00 01:13:48 24° 64° (ENE) 01:17:36 437.505
JAS-2 26 Jun 01:12:13 01:17:51 49° 98° (E) 01:22:58 435.910
VELOX 1 26 Jun 01:15:12 01:15:48 10° 271° (W) 01:16:25 145.980
AO-85 26 Jun 01:16:53 01:18:37 11° 333° (NNW) 01:20:21 145.980
BUGSAT 1 26 Jun 01:20:15 01:24:16 58° 287° (WNW) 01:28:18 437.445
NANOSAT C BR1 26 Jun 01:25:02 01:28:28 25° 293° (WNW) 01:31:54 145.865
QB50P1 26 Jun 01:26:15 01:29:36 23° 294° (WNW) 01:32:57 145.935-145.965
POPSAT HIP 1 26 Jun 01:29:12 01:32:29 22° 294° (WNW) 01:35:46 437.405
ITUPSAT 1 26 Jun 01:33:57 01:38:17 35° 68° (ENE) 01:42:38 437.325
Gurwin Techsat 1B 26 Jun 01:34:47 01:37:18 13° 88° (E) 01:39:48 435.225
BEESAT 26 Jun 01:34:59 01:39:19 36° 68° (ENE) 01:43:42 436.000
Oscar 19 26 Jun 01:41:12 01:45:52 34° 97° (E) 01:50:29 437.125/150
QB50P2 26 Jun 01:41:14 01:43:53 16° 297° (WNW) 01:46:31 145.880/145.840
POLYITAN 1 26 Jun 01:43:53 01:46:29 16° 297° (WNW) 01:49:06 437.675
DUCHIFAT 1 26 Jun 01:47:50 01:50:26 16° 297° (WNW) 01:53:02 145.980
YUBILEINY 26 Jun 01:49:27 01:57:09 35° 276° (W) 02:04:51 435.215
TISAT 1 26 Jun 02:13:42 02:16:32 18° 267° (W) 02:19:22 437.305
SO-50 26 Jun 02:32:26 02:36:08 24° 248° (WSW) 02:39:44 436.795
MOZHAYETS 4 26 Jun 02:42:30 02:45:49 20° 64° (ENE) 02:49:09
SWISSCUBE 26 Jun 02:46:49 02:51:21 41° 262° (W) 02:55:55 437.505
JAS-2 26 Jun 02:57:56 03:02:33 25° 300° (WNW) 03:06:50 435.910
Cosmos 2504 26 Jun 02:58:01 03:06:01 39° 275° (W) 03:13:49 435.465 / 435.565
BEESAT 3 26 Jun 02:58:48 03:02:14 29° 116° (ESE) 03:05:42 437.485
Cosmos 2491 26 Jun 03:00:34 03:07:51 29° 294° (WNW) 03:15:11 435.465 / 435.565
O/OREOS (USA 219) 26 Jun 03:01:05 03:05:12 36° 106° (ESE) 03:09:20 437.305
PCSat 26 Jun 03:01:58 03:07:22 73° 118° (ESE) 03:12:48 145.827
ITUPSAT 1 26 Jun 03:12:04 03:16:09 27° 265° (W) 03:20:16 437.325
Gurwin Techsat 1B 26 Jun 03:12:32 03:17:53 82° 285° (WNW) 03:23:12 435.225
BEESAT 26 Jun 03:13:11 03:17:11 26° 265° (W) 03:21:12 436.000
KKS-1 26 Jun 03:13:19 03:17:30 43° 70° (ENE) 03:21:42 437.445
Oscar 19 26 Jun 03:20:37 03:25:06 31° 294° (WNW) 03:29:34 437.125/150
BEESAT 2 26 Jun 03:30:22 03:34:00 35° 117° (ESE) 03:37:39 435.950
ITAMSAT 1 26 Jun 03:35:50 03:41:04 62° 102° (ESE) 03:46:13 435.822/435.867
AO-7 26 Jun 03:51:20 03:59:00 38° 98° (E) 04:06:35 29.400- 29.500
STARS 26 Jun 03:53:36 03:57:52 58° 73° (ENE) 04:02:11 437.465
GONETS M04 26 Jun 03:54:32 03:59:06 15° 55° (NE) 04:03:39
Cosmos 2499 26 Jun 04:00:42 04:02:08 10° 49° (NE) 04:03:33 435.465 / 435.565
CUBESAT XI-V 26 Jun 04:02:19 04:05:16 17° 62° (ENE) 04:08:13 437.345
MOZHAYETS 4 26 Jun 04:18:11 04:22:38 48° 261° (W) 04:27:09
HORYU 2 26 Jun 04:30:05 04:32:06 13° 90° (E) 04:34:06 437.375
BEESAT 3 26 Jun 04:36:27 04:39:53 28° 314° (NW) 04:43:22 437.485
AIST 1 26 Jun 04:40:21 04:44:38 84° 82° (E) 04:48:53
O/OREOS (USA 219) 26 Jun 04:40:59 04:44:42 25° 304° (NW) 04:48:25 437.305
PCSat 26 Jun 04:47:09 04:51:20 22° 318° (NW) 04:55:31 145.827
KKS-1 26 Jun 04:51:07 04:54:16 19° 267° (W) 04:57:25 437.445
Gurwin Techsat 1B 26 Jun 04:54:47 04:56:59 13° 304° (NW) 04:59:11 435.225
BEESAT 2 26 Jun 05:08:34 05:11:54 25° 315° (NW) 05:15:16 435.950
ITAMSAT 1 26 Jun 05:16:23 05:20:02 20° 299° (WNW) 05:23:41 435.822/435.867
AIST 2 26 Jun 05:25:24 05:29:06 33° 116° (ESE) 05:32:50 435.215
STARS 26 Jun 05:32:24 05:34:37 14° 269° (W) 05:36:50 437.465
CUBESAT XI-V 26 Jun 05:37:31 05:42:10 60° 259° (W) 05:46:51 437.345
AO-7 26 Jun 05:43:55 05:51:59 54° 297° (WNW) 06:00:00 29.400- 29.500
GONETS M04 26 Jun 05:49:07 05:57:50 68° 79° (ENE) 06:06:32
STRAND 1 26 Jun 05:49:08 05:52:29 18° 60° (ENE) 05:55:51 437.568
Cosmos 2499 26 Jun 05:49:23 05:57:56 49° 73° (ENE) 06:06:01 435.465 / 435.565
CUTE-I 26 Jun 05:56:04 05:59:20 16° 90° (E) 06:02:33 437.470
HORYU 2 26 Jun 06:04:38 06:09:06 67° 287° (WNW) 06:13:33 437.375
AO-85 26 Jun 06:22:18 06:26:38 37° 47° (NE) 06:30:36 145.980
NOAA 18 26 Jun 06:30:23 06:35:26 35° 97° (E) 06:40:28 137.9125
NOAA 15 26 Jun 06:32:38 06:37:41 46° 99° (E) 06:42:41 137.62
BRITE-PL 26 Jun 06:52:20 06:56:31 70° 101° (E) 07:00:39 437.365/2234.400
Cubesat XI-IV 26 Jun 06:59:11 07:04:31 58° 101° (E) 07:09:49 437.490
AIST 2 26 Jun 07:04:01 07:07:37 28° 315° (NW) 07:11:13 435.215
DANDE 26 Jun 07:06:23 07:12:07 21° 82° (E) 07:17:40 436.750
CUSAT 1 26 Jun 07:09:00 07:16:03 37° 91° (E) 07:22:16 437.405
LilacSat-2 26 Jun 07:11:02 07:14:56 87° 100° (E) 07:18:49 437.200
DOVE 4 26 Jun 07:17:37 07:21:16 27° 96° (E) 07:25:03 437.250
STRAND 1 26 Jun 07:26:01 07:31:07 67° 258° (WSW) 07:36:17 437.568
CUTE-I 26 Jun 07:34:31 07:39:53 70° 288° (WNW) 07:45:14 437.470
AO-7 26 Jun 07:39:03 07:42:53 14° 319° (NW) 07:46:44 29.400- 29.500
GOMX 1 26 Jun 07:40:29 07:44:40 79° 284° (WNW) 07:48:56 467.674
Cosmos 2499 26 Jun 07:42:52 07:50:51 40° 275° (W) 07:58:30 435.465 / 435.565
GONETS M04 26 Jun 07:47:01 07:53:53 27° 279° (W) 08:00:47
AO-85 26 Jun 08:03:11 08:06:53 26° 248° (WSW) 08:10:20 145.980
HO-68 26 Jun 08:10:58 08:17:28 35° 96° (E) 08:23:55 435.675
NOAA 18 26 Jun 08:11:04 08:16:03 35° 295° (WNW) 08:21:01 137.9125
PHONESAT 2.4 26 Jun 08:12:32 08:14:50 19° 158° (SSE) 08:17:08 2401.200-2431.200
NOAA 15 26 Jun 08:12:58 08:17:11 25° 297° (WNW) 08:21:23 137.62
PRISM 26 Jun 08:19:41 08:23:50 75° 76° (ENE) 08:28:00 437.425
AAUSAT CUBESAT 2 26 Jun 08:21:40 08:23:46 13° 90° (E) 08:25:50 437.432
BRITE-PL 26 Jun 08:33:11 08:34:26 11° 300° (WNW) 08:35:42 437.365/2234.400
CINEMA 3 26 Jun 08:33:22 08:37:45 52° 100° (E) 08:42:19 145.822/145.860
CANX-2 26 Jun 08:38:39 08:42:55 59° 100° (E) 08:47:08 2200.000
Cubesat XI-IV 26 Jun 08:40:11 08:44:10 21° 299° (WNW) 08:48:07 437.490
DANDE 26 Jun 08:45:39 08:54:06 89° 97° (E) 09:02:05 436.750
ISS 26 Jun 08:47:15 08:48:27 12° 131° (SE) 08:49:41 145.825
CUBEBUG 2 26 Jun 08:49:44 08:53:33 25° 94° (E) 08:57:25 437.445
CUSAT 1 26 Jun 08:50:29 08:58:02 48° 285° (WNW) 09:04:33 437.405
COMPASS 1 26 Jun 08:51:33 08:55:26 35° 97° (E) 08:59:16 437.405
DOVE 4 26 Jun 08:55:18 08:58:57 29° 291° (WNW) 09:02:45 437.250
CUTE 1.7 + AOD 2 26 Jun 08:59:11 09:03:31 87° 107° (ESE) 09:07:47 437.475
ANTELSAT 26 Jun 09:00:01 09:02:22 15° 61° (ENE) 09:04:45 437.575/2403.000
M-CUBED/EXP-1 PRIME 26 Jun 09:02:38 09:05:20 18° 100° (E) 09:08:08 437.505
SEEDS 26 Jun 09:08:17 09:12:34 79° 103° (ESE) 09:16:47 437.485
CUTE-I 26 Jun 09:17:31 09:18:58 11° 306° (NW) 09:20:25 437.470
ZACube-1 26 Jun 09:28:10 09:32:07 29° 95° (E) 09:36:07 437.345
UWE-3 26 Jun 09:42:32 09:47:04 62° 101° (E) 09:51:39 435.000/436.395/437.385
Oscar 11 26 Jun 09:43:23 09:47:34 43° 98° (E) 09:51:42 145.826/435.025
FUNcube-1 26 Jun 09:47:02 09:51:21 43° 98° (E) 09:55:42 145.935
PHONESAT 2.4 26 Jun 09:48:08 09:51:04 42° 174° (S) 09:54:00 2401.200-2431.200
TIGRISAT 26 Jun 09:50:25 09:54:27 43° 71° (ENE) 09:58:36 435.000
UNISAT 6 26 Jun 09:54:29 09:58:38 50° 72° (ENE) 10:02:53 437.425
AAUSAT CUBESAT 2 26 Jun 09:55:30 09:59:35 54° 287° (WNW) 10:03:39 437.432
HO-68 26 Jun 09:58:29 10:05:21 49° 295° (WNW) 10:12:11 435.675
AUBIESAT-1 26 Jun 09:59:13 10:03:02 65° 107° (ESE) 10:07:08 437.475
PCSat 26 Jun 10:06:19 10:09:42 16° 37° (NE) 10:13:04 145.827
CINEMA 3 26 Jun 10:11:35 10:14:33 18° 295° (WNW) 10:17:36 145.822/145.860
CANX-2 26 Jun 10:15:56 10:18:18 15° 297° (WNW) 10:20:38 2200.000
ISS 26 Jun 10:21:10 10:24:26 87° 138° (SE) 10:27:42 145.825
CUBEBUG 2 26 Jun 10:26:04 10:30:13 35° 290° (WNW) 10:34:26 437.445
COMPASS 1 26 Jun 10:27:35 10:30:47 21° 294° (WNW) 10:33:57 437.405
DELFI C3 26 Jun 10:29:47 10:33:47 65° 100° (E) 10:37:44 145.870
DANDE 26 Jun 10:31:24 10:37:47 23° 297° (WNW) 10:43:50 436.750
ANTELSAT 26 Jun 10:34:20 10:38:34 60° 259° (W) 10:42:55 437.575/2403.000
M-CUBED/EXP-1 PRIME 26 Jun 10:36:27 10:39:57 38° 293° (WNW) 10:43:43 437.505
CUTE 1.7 + AOD 2 26 Jun 10:38:00 10:38:39 10° 300° (WNW) 10:39:19 437.475
BUGSAT 1 26 Jun 10:39:05 10:40:07 11° 61° (ENE) 10:41:10 437.445
NANOSAT C BR1 26 Jun 10:42:35 10:46:07 27° 68° (ENE) 10:49:41 145.865
QB50P1 26 Jun 10:43:52 10:47:31 30° 68° (ENE) 10:51:11 145.935-145.965
SEEDS 26 Jun 10:46:25 10:47:38 11° 300° (WNW) 10:48:50 437.485
POPSAT HIP 1 26 Jun 10:46:45 10:50:28 31° 69° (ENE) 10:54:11 437.405
RS-15 26 Jun 10:48:41 10:57:08 25° 100° (E) 11:05:51 29.354- 29.394
QB50P2 26 Jun 10:58:02 11:02:01 44° 71° (ENE) 11:06:03 145.880/145.840
POLYITAN 1 26 Jun 11:00:39 11:04:38 45° 72° (ENE) 11:08:40 437.675
DUCHIFAT 1 26 Jun 11:04:00 11:07:56 43° 71° (ENE) 11:11:55 145.980
ZACube-1 26 Jun 11:04:25 11:08:21 30° 292° (WNW) 11:12:18 437.345
HUMSAT D 26 Jun 11:04:37 11:08:57 74° 102° (ESE) 11:13:15 437.325/437.525
YUBILEINY 26 Jun 11:07:02 11:08:04 10° 70° (ENE) 11:09:06 435.215
Cosmos 2491 26 Jun 11:10:35 11:18:29 36° 69° (ENE) 11:26:18 435.465 / 435.565
BEESAT 3 26 Jun 11:14:31 11:18:01 29° 46° (NE) 11:21:31 437.485
Oscar 11 26 Jun 11:20:16 11:23:23 19° 295° (WNW) 11:26:30 145.826/435.025
UWE-3 26 Jun 11:20:20 11:23:03 16° 297° (WNW) 11:25:48 435.000/436.395/437.385
CUBEBUG 1 26 Jun 11:23:41 11:25:58 14° 90° (E) 11:28:13 437.445
FUNcube-1 26 Jun 11:23:57 11:27:19 21° 295° (WNW) 11:30:43 145.935
JAS-2 26 Jun 11:24:18 11:30:50 33° 64° (ENE) 11:36:54 435.910
PHONESAT 2.4 26 Jun 11:24:33 11:27:26 36° 191° (S) 11:30:19 2401.200-2431.200
VELOX 1 26 Jun 11:24:52 11:26:58 13° 90° (E) 11:29:04 145.980
TIGRISAT 26 Jun 11:28:27 11:31:23 18° 268° (W) 11:34:22 435.000
O/OREOS (USA 219) 26 Jun 11:31:54 11:33:43 12° 48° (NE) 11:35:32 437.305
UNISAT 6 26 Jun 11:33:08 11:35:41 15° 270° (W) 11:38:17 437.425
AUBIESAT-1 26 Jun 11:35:28 11:37:09 13° 302° (WNW) 11:38:52 437.475
BEESAT 2 26 Jun 11:46:59 11:50:41 34° 48° (NE) 11:54:21 435.950
PCSat 26 Jun 11:48:34 11:54:02 76° 58° (ENE) 11:59:27 145.827
ESTCUBE 1 26 Jun 11:48:44 11:52:58 38° 98° (E) 11:57:09 437.505/2401.250
HO-68 26 Jun 11:49:55 11:51:23 11° 316° (NW) 11:52:50 435.675
50 SAT 26 Jun 11:51:50 11:54:59 26° 96° (E) 11:58:06 437.505
ISS 26 Jun 11:58:24 12:01:11 25° 346° (NNW) 12:03:59 145.825
AISAT 26 Jun 12:03:50 12:07:54 35° 98° (E) 12:11:55 437.250
DELFI C3 26 Jun 12:06:36 12:08:07 12° 298° (WNW) 12:09:37 145.870
BUGSAT 1 26 Jun 12:10:55 12:14:55 72° 257° (WSW) 12:18:57 437.445
NANOSAT C BR1 26 Jun 12:18:16 12:21:48 26° 265° (W) 12:25:23 145.865
UKube-1 26 Jun 12:18:26 12:22:15 30° 97° (E) 12:26:03 .
QB50P1 26 Jun 12:19:51 12:23:18 25° 265° (W) 12:26:46 145.935-145.965
POPSAT HIP 1 26 Jun 12:22:55 12:26:17 23° 266° (W) 12:29:39 437.405
SPROUT 26 Jun 12:25:09 12:28:44 26° 95° (E) 12:32:19 437.525
DX 1 26 Jun 12:33:05 12:37:21 54° 101° (E) 12:41:36 434.975-435.025
QB50P2 26 Jun 12:35:21 12:38:04 17° 268° (W) 12:40:47 145.880/145.840
POLYITAN 1 26 Jun 12:38:03 12:40:41 16° 268° (W) 12:43:21 437.675
DUCHIFAT 1 26 Jun 12:41:09 12:43:51 17° 268° (W) 12:46:35 145.980
HUMSAT D 26 Jun 12:42:14 12:43:58 12° 299° (WNW) 12:45:43 437.325/437.525
BEESAT 3 26 Jun 12:52:14 12:55:40 29° 245° (WSW) 12:59:05 437.485
Gurwin Techsat 1B 26 Jun 12:56:23 13:00:42 26° 63° (ENE) 13:05:00 435.225
PHONESAT 2.4 26 Jun 13:01:51 13:03:34 14° 207° (SSW) 13:05:19 2401.200-2431.200
